IZ3LCH-13 Weather Reports


time (UTC)temp
C
wind
direction
speed
KPH
gust
KPH
rain 1hr
cm
rain 24hr
cm
rain mn
cm
humidity
%
barometer
mb
20260508014003 13 10 4.8 9.7 0.00 0.00 0.00 83 1014.9
20260508013503 13 12 4.8 9.7 0.00 0.00 0.00 83 1014.6
20260508013003 13 6 4.8 9.7 0.00 0.00 0.00 83 1014.6
20260508012503 13 4 3.2 9.7 0.00 0.00 0.00 83 1014.7
20260508012004 13 12 3.2 6.4 0.00 0.00 0.00 83 1014.7
20260508011503 13 17 4.8 6.4 0.00 0.00 0.00 83 1014.9
20260508011003 13 14 3.2 6.4 0.00 0.00 0.00 82 1014.7
20260508010503 13 13 3.2 8.0 0.00 0.00 0.00 82 1014.6
20260508010003 13 14 3.2 8.0 0.00 0.00 0.00 82 1014.8
20260508005503 13 13 3.2 6.4 0.00 0.00 0.00 82 1014.7
20260508005003 14 12 4.8 9.7 0.00 0.00 0.00 82 1014.8
20260508004503 14 15 4.8 9.7 0.00 0.00 0.00 82 1014.8
20260508004003 14 17 4.8 8.0 0.00 0.00 0.00 82 1015.0
20260508003503 14 22 4.8 8.0 0.00 0.00 0.00 81 1014.7
20260508003003 14 28 4.8 8.0 0.00 0.00 0.00 81 1014.7
20260508002503 14 25 4.8 8.0 0.00 0.00 0.00 81 1014.7
20260508002003 14 22 4.8 8.0 0.00 0.00 0.00 81 1014.7
20260508001503 14 20 4.8 9.7 0.00 0.00 0.00 81 1014.8
20260508001003 14 18 4.8 9.7 0.00 0.00 0.00 81 1014.7
20260508000503 14 17 6.4 9.7 0.00 0.00 0.00 81 1014.7
20260508000003 13 15 4.8 9.7 0.00 0.00 0.00 81 1014.6
20260507235503 13 12 4.8 9.7 0.00 0.00 0.00 80 1014.8
20260507235003 13 3 4.8 8.0 0.00 0.00 0.00 80 1014.8
20260507234503 14 358 4.8 8.0 0.00 0.00 0.00 80 1014.8
20260507234003 14 6 3.2 8.0 0.00 0.00 0.00 80 1014.8
20260507233503 14 14 3.2 8.0 0.00 0.00 0.00 79 1014.8
20260507233003 14 17 4.8 8.0 0.00 0.00 0.00 79 1015.0
20260507232503 14 11 4.8 9.7 0.00 0.00 0.00 79 1014.9
20260507232003 14 4 4.8 9.7 0.00 0.00 0.00 79 1014.8
20260507231503 14 8 4.8 8.0 0.00 0.00 0.00 79 1015.1
20260507231003 14 11 4.8 8.0 0.00 0.00 0.00 79 1014.8
20260507230503 14 6 3.2 8.0 0.00 0.00 0.00 79 1014.7
20260507230003 14 14 3.2 8.0 0.00 0.00 0.00 78 1014.7
20260507225503 14 17 4.8 8.0 0.00 0.00 0.00 79 1014.9
20260507225003 14 19 4.8 8.0 0.00 0.00 0.00 79 1014.8
20260507224504 14 24 4.8 8.0 0.00 0.00 0.00 78 1014.8
20260507224003 14 23 4.8 8.0 0.00 0.00 0.00 78 1014.6
20260507223503 14 18 4.8 8.0 0.00 0.00 0.00 77 1014.9
20260507223003 14 18 3.2 8.0 0.00 0.00 0.00 77 1015.0
20260507222503 14 20 3.2 8.0 0.00 0.00 0.00 77 1014.8
20260507222003 14 21 3.2 8.0 0.00 0.00 0.00 76 1014.8
20260507221503 14 25 1.6 4.8 0.00 0.00 0.00 76 1014.8
20260507221003 14 21 3.2 9.7 0.00 0.00 0.00 76 1014.8
20260507220503 14 10 3.2 9.7 0.00 0.00 0.00 76 1014.5
20260507220003 14 10 3.2 6.4 0.00 0.00 0.00 76 1014.7
20260507215503 14 18 4.8 6.4 0.00 0.00 0.00 76 1014.6
20260507215003 14 22 4.8 8.0 0.00 0.00 0.00 76 1014.6
20260507214503 14 21 4.8 8.0 0.00 0.00 0.00 76 1014.5
20260507214003 14 15 3.2 6.4 0.00 0.00 0.00 76 1014.7
20260507213503 14 12 3.2 8.0 0.00 0.00 0.00 76 1014.5
20260507213003 14 19 3.2 8.0 0.00 0.00 0.00 76 1014.4
20260507212503 14 27 4.8 9.7 0.00 0.00 0.00 75 1014.3
20260507212003 14 20 6.4 9.7 0.00 0.00 0.00 76 1014.4
20260507211503 14 9 4.8 9.7 0.00 0.00 0.00 76 1014.6
20260507211003 14 14 4.8 6.4 0.00 0.00 0.00 75 1014.4
20260507210503 14 22 4.8 6.4 0.00 0.00 0.00 74 1014.4
20260507210003 15 336 3.2 6.4 0.00 0.00 0.00 74 1014.4
20260507205503 15 289 1.6 4.8 0.00 0.00 0.00 73 1014.3
20260507205003 15 313 0.0 4.8 0.00 0.00 0.00 73 1014.3
20260507204503 15 30 0.0 1.6 0.00 0.00 0.00 72 1014.2
20260507204003 15 296 0.0 1.6 0.00 0.00 0.00 72 1013.9
20260507203503 15 225 0.0 1.6 0.00 0.00 0.00 71 1014.1
20260507203003 15 63 0.0 3.2 0.00 0.00 0.00 71 1014.1
20260507202503 15 37 0.0 3.2 0.00 0.00 0.00 71 1014.3
20260507202003 15 356 0.0 3.2 0.00 0.00 0.00 71 1014.0
20260507201503 15 4 0.0 3.2 0.00 0.00 0.00 70 1014.1
20260507201003 15 105 0.0 3.2 0.00 0.00 0.00 70 1014.2
20260507200503 16 82 1.6 4.8 0.00 0.00 0.00 70 1014.1
20260507200003 16 96 1.6 4.8 0.00 0.00 0.00 69 1014.0
20260507195503 16 126 1.6 6.4 0.00 0.00 0.00 68 1013.8
20260507195003 16 121 4.8 9.7 0.00 0.00 0.00 68 1013.9
20260507194503 16 125 6.4 16.1 0.00 0.00 0.00 68 1013.7
20260507194003 16 129 6.4 16.1 0.00 0.00 0.00 68 1013.9
20260507193503 16 122 4.8 14.5 0.00 0.00 0.00 68 1013.6
20260507193003 16 85 4.8 8.0 0.00 0.00 0.00 68 1014.0
20260507192503 16 38 4.8 9.7 0.00 0.00 0.00 68 1013.8
20260507192003 16 26 6.4 9.7 0.00 0.00 0.00 68 1013.7
20260507191503 16 41 4.8 9.7 0.00 0.00 0.00 67 1013.4
20260507191003 17 93 4.8 9.7 0.00 0.00 0.00 67 1013.3
20260507190503 17 122 6.4 14.5 0.00 0.00 0.00 66 1013.2
20260507190004 17 129 6.4 16.1 0.00 0.00 0.00 66 1013.0
20260507185503 17 135 6.4 16.1 0.00 0.00 0.00 66 1012.9
20260507185003 17 142 4.8 14.5 0.00 0.00 0.00 65 1012.8
20260507184503 17 147 4.8 8.0 0.00 0.00 0.00 65 1012.7
20260507184003 17 140 6.4 14.5 0.00 0.00 0.00 65 1012.7
20260507183503 17 138 6.4 14.5 0.00 0.00 0.00 65 1012.7
20260507183003 18 140 6.4 16.1 0.00 0.00 0.00 64 1012.6
20260507182503 18 138 8.0 17.7 0.00 0.00 0.00 64 1012.4
20260507182003 18 142 8.0 17.7 0.00 0.00 0.00 63 1012.3
20260507181503 18 151 8.0 14.5 0.00 0.00 0.00 62 1012.4
20260507181003 19 146 9.7 22.5 0.00 0.00 0.00 62 1012.2
20260507180503 19 148 9.7 22.5 0.00 0.00 0.00 60 1012.4
20260507180003 20 165 6.4 14.5 0.00 0.00 0.00 58 1012.4
20260507175503 20 174 4.8 9.7 0.00 0.00 0.00 57 1012.1
20260507175003 20 172 4.8 8.0 0.00 0.00 0.00 56 1011.9
20260507174503 20 169 4.8 8.0 0.00 0.00 0.00 55 1011.9
20260507174003 20 165 4.8 9.7 0.00 0.00 0.00 55 1011.7
20260507173503 20 163 6.4 9.7 0.00 0.00 0.00 53 1011.6
20260507173003 21 164 6.4 9.7 0.00 0.00 0.00 53 1011.8
20260507172503 21 161 4.8 9.7 0.00 0.00 0.00 53 1011.5
20260507172003 21 162 4.8 8.0 0.00 0.00 0.00 52 1011.8
20260507171503 21 171 4.8 8.0 0.00 0.00 0.00 52 1011.7
20260507171003 21 169 4.8 9.7 0.00 0.00 0.00 50 1011.8
20260507170503 21 164 4.8 9.7 0.00 0.00 0.00 51 1011.5
20260507170003 21 169 4.8 9.7 0.00 0.00 0.00 50 1011.5
20260507165503 21 168 4.8 9.7 0.00 0.00 0.00 50 1011.5
20260507165003 21 187 4.8 9.7 0.00 0.00 0.00 51 1011.5
20260507164503 21 190 4.8 9.7 0.00 0.00 0.00 49 1011.7
20260507164003 21 201 6.4 19.3 0.00 0.00 0.00 48 1011.6
20260507163503 21 205 6.4 19.3 0.00 0.00 0.00 48 1011.7
20260507163003 22 178 6.4 14.5 0.00 0.00 0.00 47 1011.6
20260507162503 22 169 4.8 14.5 0.00 0.00 0.00 48 1011.7
20260507162003 22 185 6.4 12.9 0.00 0.00 0.00 47 1011.7
20260507161503 22 187 6.4 12.9 0.00 0.00 0.00 49 1011.7
20260507161003 22 170 4.8 12.9 0.00 0.00 0.00 48 1011.5
20260507160503 22 169 4.8 14.5 0.00 0.00 0.00 51 1011.6
20260507160020 22 188 6.4 16.1 0.00 0.00 0.00 50 1011.7
20260507155503 22 198 9.7 22.5 0.00 0.00 0.00 47 1011.5
20260507155007 22 191 8.0 22.5 0.00 0.00 0.00 51 1011.7
20260507154503 22 169 8.0 17.7 0.00 0.00 0.00 50 1011.5
20260507154003 22 170 8.0 17.7 0.00 0.00 0.00 50 1011.6
20260507153504 22 171 6.4 19.3 0.00 0.00 0.00 48 1011.5
20260507153003 22 164 8.0 19.3 0.00 0.00 0.00 49 1011.5
20260507152503 22 164 8.0 20.9 0.00 0.00 0.00 50 1011.4
20260507152003 22 170 9.7 20.9 0.00 0.00 0.00 49 1011.4
20260507151503 22 168 9.7 19.3 0.00 0.00 0.00 52 1011.3
20260507151003 22 171 9.7 17.7 0.00 0.00 0.00 51 1011.5
20260507150503 22 177 8.0 17.7 0.00 0.00 0.00 51 1011.4
20260507150003 22 175 6.4 17.7 0.00 0.00 0.00 52 1011.5
20260507145503 22 174 8.0 19.3 0.00 0.00 0.00 52 1011.3
20260507145003 22 172 9.7 22.5 0.00 0.00 0.00 50 1011.4
20260507144503 22 169 9.7 22.5 0.00 0.00 0.00 51 1011.5
20260507144003 22 168 9.7 17.7 0.00 0.00 0.00 51 1011.4
20260507143003 21 202 6.4 17.7 0.00 0.00 0.00 49 1011.6
20260507142503 22 201 6.4 14.5 0.00 0.00 0.00 48 1011.6
20260507142003 22 208 8.0 17.7 0.00 0.00 0.00 48 1011.8
20260507141503 23 186 6.4 17.7 0.00 0.00 0.00 49 1011.7
20260507141003 23 173 6.4 16.1 0.00 0.00 0.00 50 1011.7
20260507140503 23 178 6.4 16.1 0.00 0.00 0.00 50 1011.8
20260507140003 23 191 8.0 20.9 0.00 0.00 0.00 50 1011.8
20260507135503 23 198 8.0 20.9 0.00 0.00 0.00 52 1011.8
20260507135003 23 186 6.4 19.3 0.00 0.00 0.00 52 1011.8
20260507134503 23 183 6.4 19.3 0.00 0.00 0.00 47 1011.8
20260507134004 22 177 6.4 19.3 0.00 0.00 0.00 53 1011.8
20260507133503 22 181 4.8 16.1 0.00 0.00 0.00 52 1011.6
20260507133003 22 202 6.4 16.1 0.00 0.00 0.00 51 1011.8
20260507132503 22 216 9.7 22.5 0.00 0.00 0.00 49 1011.7
20260507132003 22 225 14.5 27.4 0.00 0.00 0.00 50 1011.9
20260507131503 22 226 14.5 27.4 0.00 0.00 0.00 48 1012.0
20260507131003 22 211 11.3 24.1 0.00 0.00 0.00 47 1012.0
20260507130503 22 204 9.7 24.1 0.00 0.00 0.00 54 1011.9
20260507130003 22 216 8.0 20.9 0.00 0.00 0.00 50 1011.5
20260507125503 22 226 9.7 20.9 0.00 0.00 0.00 51 1012.0
20260507125003 22 242 11.3 22.5 0.00 0.00 0.00 50 1012.0
20260507124503 22 251 11.3 22.5 0.00 0.00 0.00 53 1011.9
20260507124003 22 240 9.7 24.1 0.00 0.00 0.00 54 1011.9
20260507123503 22 239 8.0 24.1 0.00 0.00 0.00 54 1012.0
20260507123003 22 244 9.7 24.1 0.00 0.00 0.00 55 1012.1
20260507122503 22 229 9.7 24.1 0.00 0.00 0.00 53 1012.1
20260507122004 21 213 8.0 24.1 0.00 0.00 0.00 55 1012.1
20260507121503 21 207 6.4 17.7 0.00 0.00 0.00 56 1012.0
20260507121003 21 203 8.0 17.7 0.00 0.00 0.00 52 1012.2
20260507120503 22 195 6.4 16.1 0.00 0.00 0.00 54 1011.9
20260507120005 22 176 8.0 16.1 0.00 0.00 0.00 54 1012.1
20260507115503 22 179 9.7 20.9 0.00 0.00 0.00 55 1012.0
20260507115003 21 210 11.3 20.9 0.00 0.00 0.00 54 1012.0
20260507114503 21 238 11.3 22.5 0.00 0.00 0.00 55 1012.2
20260507114003 21 238 9.7 22.5 0.00 0.00 0.00 54 1012.1
20260507113503 21 213 9.7 22.5 0.00 0.00 0.00 56 1012.1
20260507113004 21 205 9.7 22.5 0.00 0.00 0.00 55 1012.2
20260507112503 21 206 9.7 19.3 0.00 0.00 0.00 54 1012.4
20260507112003 21 205 8.0 19.3 0.00 0.00 0.00 55 1012.6
20260507111504 21 221 8.0 19.3 0.00 0.00 0.00 52 1012.4
20260507111003 21 223 9.7 19.3 0.00 0.00 0.00 52 1012.3
20260507110503 21 227 9.7 24.1 0.00 0.00 0.00 55 1012.4
20260507110003 21 228 9.7 24.1 0.00 0.00 0.00 54 1012.4
20260507105503 21 219 6.4 20.9 0.00 0.00 0.00 57 1012.6
20260507105003 20 204 6.4 24.1 0.00 0.00 0.00 57 1012.8
20260507104504 20 203 8.0 24.1 0.00 0.00 0.00 54 1012.7
20260507104003 20 214 11.3 24.1 0.00 0.00 0.00 56 1012.8
20260507103503 20 237 11.3 25.7 0.00 0.00 0.00 54 1012.9
20260507102503 20 221 9.7 22.5 0.00 0.00 0.00 57 1013.1
20260507102003 20 220 11.3 30.6 0.00 0.00 0.00 58 1012.9
20260507101503 20 217 12.9 30.6 0.00 0.00 0.00 55 1013.1
20260507101003 20 215 12.9 25.7 0.00 0.00 0.00 58 1013.1
20260507100503 20 227 14.5 27.4 0.00 0.00 0.00 59 1013.0
20260507100003 20 222 14.5 27.4 0.00 0.00 0.00 60 1013.0
20260507095503 20 203 11.3 27.4 0.00 0.00 0.00 62 1013.0
20260507095003 20 207 9.7 20.9 0.00 0.00 0.00 60 1013.1
20260507094503 20 208 9.7 20.9 0.00 0.00 0.00 61 1013.2
20260507094003 20 199 8.0 19.3 0.00 0.00 0.00 64 1012.8
20260507093503 20 201 8.0 19.3 0.00 0.00 0.00 63 1013.0
20260507093003 20 209 8.0 14.5 0.00 0.00 0.00 62 1013.2
20260507092503 20 223 8.0 19.3 0.00 0.00 0.00 63 1012.9
20260507092003 19 217 9.7 24.1 0.00 0.00 0.00 61 1012.9
20260507091503 20 228 8.0 24.1 0.00 0.00 0.00 60 1012.9
20260507091003 20 247 8.0 14.5 0.00 0.00 0.00 62 1012.8
20260507090503 19 230 9.7 24.1 0.00 0.00 0.00 62 1012.9
20260507090004 19 222 11.3 24.1 0.00 0.00 0.00 61 1012.7
20260507085503 18 216 8.0 22.5 0.00 0.00 0.00 66 1013.0
20260507085003 18 191 6.4 16.1 0.00 0.00 0.00 70 1013.0
20260507084503 18 188 6.4 16.1 0.00 0.00 0.00 70 1013.0
20260507084003 18 181 6.4 16.1 0.00 0.00 0.00 72 1013.0
20260507083503 18 183 8.0 16.1 0.00 0.00 0.00 76 1013.0
20260507083003 17 192 8.0 17.7 0.00 0.00 0.00 76 1012.9
20260507082503 17 199 8.0 17.7 0.00 0.00 0.00 78 1012.8
20260507082003 17 197 6.4 16.1 0.00 0.00 0.00 77 1013.1
20260507081503 17 182 6.4 12.9 0.00 0.00 0.00 78 1013.0
20260507081003 17 174 6.4 12.9 0.00 0.00 0.00 79 1012.8
20260507080503 17 171 6.4 14.5 0.00 0.00 0.00 79 1012.7
20260507075503 17 172 6.4 14.5 0.00 0.00 0.00 80 1012.6
20260507075003 17 167 6.4 14.5 0.00 0.00 0.00 81 1012.9
20260507074503 17 182 6.4 14.5 0.00 0.00 0.00 82 1012.8
20260507074003 17 204 6.4 12.9 0.00 0.00 0.00 83 1013.0
20260507073503 17 207 4.8 14.5 0.00 0.00 0.00 82 1012.8
20260507073003 17 212 4.8 14.5 0.00 0.00 0.00 83 1012.8
20260507072503 16 193 4.8 9.7 0.00 0.00 0.00 83 1012.6
20260507072003 16 178 3.2 9.7 0.00 0.00 0.00 85 1012.6
20260507071503 16 176 3.2 6.4 0.00 0.00 0.00 86 1012.6
20260507071003 16 169 3.2 6.4 0.00 0.00 0.00 86 1012.6
20260507070503 15 179 3.2 6.4 0.00 0.00 0.00 87 1012.3
20260507070006 15 192 4.8 6.4 0.00 0.00 0.00 87 1012.3
20260507065503 15 229 4.8 6.4 0.00 0.00 0.00 88 1012.3
20260507065003 15 218 3.2 6.4 0.00 0.00 0.00 88 1012.4
20260507064503 15 189 1.6 6.4 0.00 0.00 0.00 89 1012.5
20260507064003 15 212 1.6 6.4 0.00 0.00 0.00 89 1012.5
20260507063503 15 218 3.2 9.7 0.00 0.00 0.00 90 1012.3
20260507063003 14 68 1.6 9.7 0.00 0.00 0.00 91 1012.3
20260507062503 14 47 0.0 3.2 0.00 0.00 0.00 91 1012.1
20260507062003 14 47 0.0 3.2 0.00 0.00 0.00 91 1012.2
20260507061503 13 47 0.0 3.2 0.00 0.00 0.00 91 1012.2
20260507061003 13 47 0.0 3.2 0.00 0.00 0.00 91 1012.3
20260507060503 13 47 0.0 3.2 0.00 0.00 0.00 91 1012.5
20260507060003 13 47 0.0 3.2 0.00 0.00 0.00 91 1012.3
20260507055503 13 47 0.0 3.2 0.00 0.00 0.00 91 1012.2
20260507055003 13 47 0.0 3.2 0.00 0.00 0.00 91 1012.4
20260507054503 13 47 0.0 3.2 0.00 0.00 0.00 90 1012.2
20260507054003 13 47 0.0 3.2 0.00 0.00 0.00 90 1012.1
20260507053503 12 47 0.0 3.2 0.00 0.00 0.00 90 1012.0
20260507053004 12 47 0.0 3.2 0.00 0.00 0.00 90 1011.9
20260507052503 12 47 0.0 3.2 0.00 0.00 0.00 90 1011.8
20260507052003 12 47 0.0 3.2 0.00 0.00 0.00 90 1011.9
20260507051503 12 47 0.0 3.2 0.00 0.00 0.00 90 1011.8
20260507051003 12 47 0.0 3.2 0.00 0.00 0.00 90 1011.8
20260507050503 12 47 0.0 3.2 0.00 0.00 0.00 90 1011.7
20260507050003 12 47 0.0 3.2 0.00 0.00 0.00 90 1011.6
20260507045503 12 47 0.0 3.2 0.00 0.00 0.00 90 1011.7
20260507045003 12 47 0.0 3.2 0.00 0.00 0.00 90 1011.6
20260507044503 12 47 0.0 3.2 0.00 0.00 0.00 90 1011.5
20260507044003 12 47 0.0 3.2 0.00 0.00 0.00 90 1011.4
20260507043503 12 47 0.0 3.2 0.00 0.00 0.00 90 1011.4
20260507043003 12 47 0.0 3.2 0.00 0.00 0.00 90 1011.4
20260507042503 12 47 0.0 3.2 0.00 0.00 0.00 90 1011.4
20260507042003 12 47 0.0 3.2 0.00 0.00 0.00 90 1011.3
20260507041503 12 47 0.0 3.2 0.00 0.00 0.00 90 1011.3
20260507041003 12 47 0.0 3.2 0.00 0.00 0.00 90 1011.1
20260507040504 12 47 0.0 3.2 0.00 0.00 0.00 90 1011.1
20260507040003 12 47 0.0 3.2 0.00 0.00 0.00 90 1011.1
20260507035503 12 47 0.0 3.2 0.00 0.00 0.00 90 1011.1
20260507035003 11 47 0.0 3.2 0.00 0.00 0.00 90 1011.0
20260507034503 11 47 0.0 3.2 0.00 0.00 0.00 89 1011.1
20260507034003 11 47 0.0 3.2 0.00 0.00 0.00 89 1011.1
20260507033503 11 47 0.0 3.2 0.00 0.00 0.00 89 1010.9
20260507033003 12 47 0.0 3.2 0.00 0.00 0.00 89 1011.0
20260507032503 12 47 0.0 3.2 0.00 0.00 0.00 89 1010.9
20260507032003 12 47 0.0 3.2 0.00 0.03 0.00 89 1011.1
20260507031503 12 47 0.0 3.2 0.00 0.03 0.00 89 1011.0
20260507031003 12 47 0.0 3.2 0.00 0.03 0.00 89 1011.0
20260507030503 12 47 0.0 3.2 0.00 0.03 0.00 89 1010.8
20260507030003 12 47 0.0 3.2 0.00 0.03 0.00 89 1010.9
20260507025503 12 47 0.0 3.2 0.00 0.03 0.00 89 1011.0
20260507025003 11 47 0.0 3.2 0.00 0.03 0.00 89 1010.9
20260507024503 11 47 0.0 3.2 0.00 0.03 0.00 89 1010.8
20260507024003 11 47 0.0 3.2 0.00 0.03 0.00 89 1010.9
20260507023503 12 47 0.0 3.2 0.00 0.03 0.00 89 1010.9
20260507023003 12 47 0.0 3.2 0.00 0.03 0.00 89 1010.8
20260507022503 12 47 0.0 3.2 0.00 0.03 0.00 89 1010.9
20260507022003 12 47 0.0 3.2 0.00 0.03 0.00 89 1010.8
20260507021503 12 47 0.0 3.2 0.00 0.03 0.00 89 1010.8
20260507021003 12 47 0.0 3.2 0.00 0.03 0.00 89 1010.6
20260507020503 12 47 0.0 3.2 0.00 0.03 0.00 89 1010.7
20260507020003 12 47 0.0 3.2 0.00 0.03 0.00 89 1010.9
20260507015503 12 47 0.0 3.2 0.00 0.03 0.00 89 1010.6
20260507015003 12 47 0.0 3.2 0.00 0.03 0.00 89 1010.6
20260507014503 12 47 0.0 3.2 0.00 0.03 0.00 89 1010.5